182  
ASUS43 KEAX 270010  
RWREAX  
 
WEATHER ROUNDUP FOR EASTERN KANSAS AND NORTHWEST MISSOURI  
NATIONAL WEATHER SERVICE KANSAS CITY/PLEASANT HILL MO  
700 PM CDT THU APR 26 2018  
 
KSZ040-057-103>105-MOZ028-029-037-043-270100-   
..KANSAS CITY METROPOLITAN AREA
 
 
 
CITY SKY/WX TMP DP RH WIND PRES REMARKS
 
K.C. INTL PTSUNNY 67 40 37 NW6 29.94S  
6HR MIN TEMP: 62; 6HR MAX TEMP: 69;  
 
K.C. DOWNTOWN MOSUNNY 68 40 35 NW9 29.93S  
6HR MIN TEMP: 62; 6HR MAX TEMP: 69;  
 
LEES SUMMIT SUNNY 67 45 45 W12 29.94F  
6HR MIN TEMP: 61; 6HR MAX TEMP: 68;  
 
OLATHE - IXD SUNNY 66 43 43 NW8 29.96S  
6HR MIN TEMP: 60; 6HR MAX TEMP: 68;  
 
OLATHE - OJC SUNNY 65 44 46 NW13G18 29.95S  
6HR MIN TEMP: 59; 6HR MAX TEMP: 66;  
 
LAWRENCE SUNNY 68 41 37 N13 29.95S  
 

 
 
MOZ001>008-011>017-020>025-030>033-038>040-044>046-053-054-270100-   
..NORTHERN AND CENTRAL MISSOURI
 
 
 
CITY SKY/WX TMP DP RH WIND PRES REMARKS
 
ST. JOSEPH SUNNY 68 46 45 W5 29.93F  
6HR MIN TEMP: 63; 6HR MAX TEMP: 71;  
 
MOSBY CLEAR 68 41 37 W6 29.93S  
WARRENSBURG MOSUNNY 68 41 37 W8 29.94S  
WHITEMAN AFB PTSUNNY 67 43 42 W12 29.90S  
6HR MIN TEMP: 61; 6HR MAX TEMP: 67;  
 
CLINTON MOSUNNY 64 48 55 W7 29.95S  
SEDALIA CLOUDY 67 46 47 W9 29.94S  
6HR MIN TEMP: 62; 6HR MAX TEMP: 69;  
 
WARSAW NOT AVBL  
CHILLICOTHE N/A 69 37 30 NW9 29.92S  
6HR MIN TEMP: 65; 6HR MAX TEMP: 71;  
 
KIRKSVILLE SUNNY 67 35 30 W9 29.90S  
6HR MIN TEMP: 66; 6HR MAX TEMP: 70;  
 

 
 
MOZ041-047>049-056>058-063>065-088>090-097-270100-   
..EASTERN AND SOUTHERN MISSOURI
 
 
 
CITY SKY/WX TMP DP RH WIND PRES REMARKS
 
ST. LOUIS INTL MOCLDY 68 41 37 NW6 29.88F  
6HR MIN TEMP: 66; 6HR MAX TEMP: 72;  
 
SPIRIT OF STL MOCLDY 68 43 40 NW7 29.87F  
COLUMBIA PTCLDY 66 40 38 NW9 29.91S  
JEFFERSON CITY PTCLDY 67 41 38 W9 29.90S  
ROLLA CLOUDY 63 45 51 W6 29.92F  
OSAGE BEACH CLOUDY 66 45 46 CALM 29.93S  
SPRINGFIELD CLOUDY 62 48 60 SW6 29.95S  
BRANSON CLOUDY 59 46 63 NW8 29.97F  
JOPLIN MOSUNNY 62 49 62 W7 29.99S  
WEST PLAINS CLOUDY 63 46 54 N6 29.94S  
 

 
 
IAZ060-094-KSZ022-034>040-054-083-096-NEZ052-066-093-270100-    
..KANSAS...SOUTHEAST NEBRASKA AND IOWA
 
 
 
CITY SKY/WX TMP DP RH WIND PRES REMARKS
 
TOPEKA SUNNY 68 44 42 N10 29.95S  
6HR MIN TEMP: 62; 6HR MAX TEMP: 71;  
 
MANHATTAN SUNNY 70 44 39 N13G26 29.97R  
EMPORIA PTSUNNY 66 39 37 NW8 29.97S  
CHANUTE MOSUNNY 66 46 48 NW5 29.98S  
WICHITA CLOUDY 68 41 37 NW6 29.99F  
OMAHA SUNNY 65 27 23 N24G35 29.98R  
LINCOLN SUNNY 65 26 23 N23G33 30.03R  
FALLS CITY SUNNY 68 39 34 NW15G25 29.93S  
LAMONI CLOUDY 67 37 33 W13 29.90F  
DES MOINES MOSUNNY 66 41 40 NW14G29 29.90R  
 

 
 
 
 
CLICK HERE TO GO TO PREVIOUS BULLETINS.

The Nexlab MO Page
The Nexlab KS Page Main Text Page